Strait of Georgia - north of Nanaimo: Past 24 Hour Conditions

 

Victoria Int'l Airport

10:00 AM PDT 24 July 2014
This table is a summary of hourly weather conditions for the past 24 hours.
Date / Time
(PDT)
Wind(knots) Conditions Visibility(km) Pressure(kPa) Air tempC) Relative humidity(%) Dew pointC)
24 July 2014
10:00 WSW 5 Partly Cloudy 48 101.9 17 73 12
9:00 W 8 Mostly Cloudy 48 101.9 15 81 12
8:00 SW 4 Mostly Cloudy 48 101.8 14 91 12
7:00 SE 4 Light Rain 19 101.8 13 95 12
6:00 ESE 4 Light Rain 10 101.7 13 98 12
5:00 SSE 2 Light Rain 10 101.7 13 99 13
4:00 S 2 Light Rain 16 101.7 13 98 12
3:00 N 1 Light Rain 19 101.7 13 98 13
2:00 NNE 2 Mostly Cloudy 32 101.7 13 97 12
1:00 NE 2 Cloudy 32 101.7 13 96 12
0:00 NE 3 Cloudy 48 101.7 13 92 12
23 July 2014
23:00 SE 6 Cloudy 48 101.7 14 90 12
22:00 SSE 10 Cloudy 48 101.7 14 93 13
21:00 SE 6 Mostly Cloudy 48 101.7 13 94 12
20:00 SE 10 Mostly Cloudy 32 101.6 13 95 12
19:00 ESE 7 Mostly Cloudy 32 101.5 13 94 12
18:00 SSE 2 Mostly Cloudy 32 101.5 15 90 13
17:00 S 3 Light Rain 19 101.6 15 89 13
16:00 SE 6 Light Rain 8 101.5 14 97 13
15:00 SE 6 Light Rain 8 101.5 15 96 14
14:00 ESE 6 Mist 8 101.5 16 91 15
13:00 SSE 5 Mist 8 101.5 16 92 15
12:00 SSE 2 Light Rain 8 101.5 16 91 15
11:00 SSE 2 Mostly Cloudy 24 101.5 16 87 14
10:00 WSW 2 Light Rain 19 101.5 16 85 13
 
Map of Pacific - Georgia Basin marine weather areas Tsawwassen Ferry Terminal Sentry Shoal - 46131 Halibut Bank - 46146 La Perouse Bank - 46206 Discovery Island Esquimalt Harbour Kelp Reefs Malahat Race Rocks Lightstation Saturna Island Sheringham Point University of Victoria Victoria Gonzales Victoria Int'l Airport Ballenas Islands Campbell River Airport Comox Airport Entrance Island Fanny Island Nanaimo Airport Sisters Islets Estevan Point Tofino Airport Grief Point Powell River Airport Sechelt Point Atkinson Sand Heads Lightstation Vancouver Harbour Vancouver Int'l Airport West Vancouver Port Alberni Howe Sound - Pam Rocks Squamish Airport